Location: Demmingen
(48.6757°N, 10.4375°E)
Time: 09:51:33
(UTC+00:00)

CZ-2C R/B - Pass Details

Date: 05 August 2024
Orbit: 703 x 903 km, 98.2° (Epoch: 16 September)

Event Time Altitude Azimuth Distance (km) Brightness Sun altitude
Rises 00:04:23 0° 28° (NNE) 3,145 7.4 -23.8°
Reaches altitude 10° 00:07:22 10° 48° (NE) 2,244 6.1 -23.7°
Maximum altitude 00:10:39 18° 90° (E) 1,803 5.0 -23.6°
Enters shadow 00:12:32 15° 117° (ESE) 1,984 5.0 -23.6°
